This is the latest recevied weather packets stored in our database for station/object N4WFF. If no packets are shown the sender has not sent any weather packets the latest 10 day(s).
| Time | Temp. | Humidity | Pressure | Rain* | Wind** | Luminosity | Snow |
|---|---|---|---|---|---|---|---|
| 1777481156 | 26.67° C | 75% | 1015.3 hPa | 0 mm | - | 986 W/m² | - |
| 1777480860 | 26.11° C | 76% | 1015.5 hPa | 0 mm | - | 993 W/m² | - |
| 1777480555 | 26.11° C | 76% | 1015.5 hPa | 0 mm | - | 475 W/m² | - |
| 1777480256 | 26.67° C | 77% | 1015.7 hPa | 0 mm | - | 616 W/m² | - |
| 1777479956 | 26.67° C | 75% | 1015.8 hPa | 0 mm | - | 376 W/m² | - |
| 1777479656 | 26.67° C | 76% | 1015.8 hPa | 0 mm | - | 988 W/m² | - |
| 1777479356 | 26.11° C | 77% | 1015.9 hPa | 0 mm | - | 924 W/m² | - |
| 1777479059 | 25.56° C | 78% | 1016 hPa | 0 mm | - | 936 W/m² | - |
| 1777478757 | 25.56° C | 80% | 1016.2 hPa | 0 mm | - | 256 W/m² | - |
| 1777478456 | 25.56° C | 78% | 1016.3 hPa | 0 mm | - | 947 W/m² | - |
| 1777478156 | 25.56° C | 80% | 1016.3 hPa | 0 mm | - | 881 W/m² | - |
| 1777477856 | 25.56° C | 81% | 1016.6 hPa | 0 mm | - | 825 W/m² | - |
| 1777477555 | 25.56° C | 81% | 1016.6 hPa | 0 mm | - | 935 W/m² | - |
| 1777476974 | 25° C | 81% | 1016.7 hPa | 0 mm | - | 903 W/m² | - |
| 1777476656 | 24.44° C | 85% | 1016.9 hPa | 0 mm | - | 895 W/m² | - |
| 1777476356 | 24.44° C | 83% | 1017 hPa | 0 mm | - | 780 W/m² | - |
| 1777476057 | 23.89° C | 85% | 1017 hPa | 0 mm | - | 580 W/m² | - |
| 1777475756 | 23.89° C | 84% | 1017 hPa | 0 mm | - | 780 W/m² | - |
| 1777475456 | 23.89° C | 85% | 1016.9 hPa | 0 mm | - | 564 W/m² | - |
| 1777475155 | 23.89° C | 85% | 1017.2 hPa | 0 mm | - | 571 W/m² | - |
| 1777474857 | 23.33° C | 87% | 1017.3 hPa | 0 mm | - | 300 W/m² | - |
| 1777474556 | 23.33° C | 87% | 1017.2 hPa | 0 mm | - | 346 W/m² | - |
| 1777474255 | 23.33° C | 87% | 1017.2 hPa | 0 mm | - | 427 W/m² | - |
| 1777473956 | 23.33° C | 87% | 1017.3 hPa | 0 mm | - | 558 W/m² | - |
| 1777473665 | 23.33° C | 88% | 1017.5 hPa | 0 mm | - | 297 W/m² | - |
* Rain latest hour (hover to see other rain measurements)
** Current wind speed in m/s (hover to see current wind gust speed)